Location: Lombard
(41.8800°N, 88.0080°W)
Time: 06:33:52
(UTC-05:00)

A-11 Canister half - Pass Details

Date: 29 April 2025
Orbit: 1514 x 1685 km, 47.2° (Epoch: 13 May)

Event Time Altitude Azimuth Distance (km) Brightness Sun altitude
Exits shadow 04:48:56 - 207° (SSW) 3,999 10.7 -11.1°
Reaches altitude 10° 04:50:00 10° 205° (SSW) 3,676 10.5 -11.0°
Maximum altitude 04:58:32 44° 137° (SE) 1,997 9.7 -9.6°
Drops below altitude 10° 05:07:06 10° 69° (ENE) 3,693 12.7 -8.2°
Sets 05:10:19 0° 64° (ENE) 4,691 14.2 -7.7°
